Regional Weather Roundup
Issued by NWS

Home | Current Version | Previous Version | Graphics & Text | Print | Product List | Glossary On
Versions: 1 2 3 4 5 6 7 8 9 10 11 12 13 14 15 16 17 18 19 20 21 22 23 24 25 26 27 28 29 30 31 32 33 34 35 36 37 38 39 40 41 42 43 44 45 46 47 48 49 50
010
ASUS44 KJAN 181003
RWRMS

MISSISSIPPI HOURLY WEATHER ROUNDUP
NATIONAL WEATHER SERVICE JACKSON MS
500 AM CDT FRI APR 18 2014

NOTE: "FAIR: INDICATES FEW OR NO CLOUDS BELOW 12,000 FEET WITH NO
SIGNIFICANT WEATHER AND/OR OBSTRUCTIONS TO VISIBILITY.

MSZ001>002-007>008-010>013-018>021-025>028-034>036-181100-
NORTHWEST MISSISSIPPI

CITY           SKY/WX    TMP DP  RH WIND       PRES   REMARKS
CLARKSDALE       N/A     55  54  94 CALM      30.20S
CLEVELAND      CLOUDY    56  55  96 N6        30.18R
GREENWOOD      MOCLDY    53  51  93 NE6       30.17S
GREENVILLE     CLOUDY    57  53  86 N6        30.17R
GRENADA        FAIR      52  50  93 CALM      30.19R
OLIVE BRANCH   MOCLDY    54  50  87 CALM      30.22R
OXFORD         FAIR      50  46  87 CALM      30.21R
TUNICA         CLOUDY    54  50  87 CALM      30.23R
$$

MSZ003>006-009-014>017-022>024-029>033-037>039-181100-
NORTHEAST MISSISSIPPI

CITY           SKY/WX    TMP DP  RH WIND       PRES   REMARKS
BELMONT        PTSUNNY   56  49  79 CALM      30.21F
COLUMBUS AFB   CLOUDY    57  51  79 NE6       30.18F
CORINTH        CLOUDY    55  48  76 CALM      30.22R
GOLDN TRIANGLE CLOUDY    57  48  72 E7        30.20F
STARKVILLE     FAIR      57  52  82 E5        30.17F
TUPELO         CLOUDY    58  50  75 E5        30.19F
$$

MSZ040-058-181100-
CENTRAL MISSISSIPPI

CITY           SKY/WX    TMP DP  RH WIND       PRES   REMARKS
JACKSON INTL   MOCLDY    55  53  93 NE3       30.13S
JACKSON HAWKNS MOCLDY    58  51  78 CALM      30.13F
MERIDIAN KEY   LGT RAIN  57  55  93 NE7       30.15S
MERIDIAN NAS   LGT RAIN  57  54  88 E8        30.16F
RAYMOND        CLOUDY    55  50  82 CALM      30.13F
VICKSBURG      CLEAR     58  53  84 NE6       30.13F
$$

MSZ059>079-181100-
SOUTH MISSISSIPPI

CITY           SKY/WX    TMP DP  RH WIND       PRES   REMARKS
BROOKHAVEN     CLOUDY    57  55  94 CALM      30.13S
COLUMBIA       CLOUDY    59  57  94 MISG      30.10R
HATTIESBURG    RAIN      59  58  96 NE7       30.12R FOG
MCCOMB         CLOUDY    59  55  87 CALM      30.11R
NATCHEZ        CLEAR     52  48  87 N3        30.11S
PINE BELT      CLOUDY    57  55  94 NE5       30.12S
$$

MSZ080>082-181100-
COASTAL MISSISSIPPI

CITY           SKY/WX    TMP DP  RH WIND       PRES   REMARKS
BILOXI         CLOUDY    61  60  98 NE8       30.04S
PASCAGOULA     LGT RAIN  60  59  96 NE9       30.04S
GULFPORT       LGT RAIN  63  58  83 N9        30.04S
$$



USA.gov is the U.S. government's official web portal to all federal, state and local government web resources and services.